Total_Precipitation_Accumulation
0.45 0.46 0.45 0.43 0.41 0.35 0.30 0.30 0.31 0.33 0.37 0.40 0.47 0.51 0.53 0.57 0.61 0.70 0.83 1.02 1.13 1.16 1.19 1.25 1.27 1.26 1.24 1.23 1.30 1.42 1.54 1.53 1.31 1.12 1.15 1.17 1.13 1.02 0.95 0.88 0.75 0.67 0.54
0.61 0.69 0.70 0.62 0.53 0.44 0.35 0.30 0.30 0.32 0.35 0.37 0.37 0.40 0.42 0.46 0.52 0.63 0.75 0.86 0.95 0.98 0.98 0.99 0.96 0.95 0.98 0.98 1.05 1.14 1.23 1.41 1.38 1.25 1.32 1.38 1.36 1.26 1.20 1.12 0.92 0.72 0.60
0.67 0.91 1.02 0.94 0.80 0.62 0.43 0.29 0.25 0.25 0.28 0.29 0.31 0.35 0.42 0.53 0.63 0.69 0.72 0.76 0.78 0.81 0.88 0.93 0.86 0.83 0.84 0.86 0.89 0.88 0.93 1.11 1.23 1.26 1.32 1.42 1.43 1.42 1.29 1.15 1.08 0.95 0.74
0.62 0.78 0.85 0.78 0.68 0.55 0.37 0.24 0.19 0.19 0.22 0.26 0.31 0.37 0.46 0.53 0.62 0.67 0.68 0.67 0.63 0.59 0.63 0.69 0.71 0.69 0.69 0.75 0.78 0.80 0.82 0.95 1.10 1.20 1.29 1.46 1.49 1.43 1.38 1.23 1.22 1.11 1.00
0.40 0.46 0.51 0.46 0.35 0.30 0.25 0.21 0.19 0.20 0.22 0.27 0.32 0.39 0.43 0.44 0.46 0.43 0.42 0.42 0.40 0.38 0.37 0.41 0.47 0.52 0.55 0.58 0.61 0.73 0.81 0.87 0.95 1.02 1.09 1.29 1.52 1.56 1.37 1.27 1.34 1.33 1.21
0.24 0.28 0.34 0.36 0.29 0.24 0.20 0.16 0.16 0.19 0.23 0.28 0.33 0.39 0.39 0.34 0.38 0.29 0.20 0.20 0.25 0.29 0.33 0.35 0.36 0.39 0.43 0.44 0.45 0.52 0.66 0.75 0.80 0.88 0.95 1.12 1.34 1.50 1.55 1.51 1.44 1.36 1.34
0.23 0.27 0.35 0.37 0.34 0.29 0.22 0.20 0.20 0.22 0.24 0.27 0.28 0.28 0.31 0.35 0.32 0.25 0.16 0.15 0.19 0.23 0.28 0.31 0.28 0.28 0.33 0.36 0.37 0.36 0.39 0.47 0.59 0.73 0.82 0.89 1.04 1.25 1.42 1.42 1.47 1.50 1.51
0.23 0.27 0.33 0.37 0.35 0.32 0.32 0.34 0.35 0.33 0.31 0.30 0.28 0.27 0.32 0.33 0.27 0.22 0.17 0.16 0.21 0.24 0.27 0.29 0.29 0.26 0.26 0.31 0.37 0.36 0.33 0.32 0.35 0.45 0.58 0.75 0.94 1.14 1.40 1.40 1.40 1.49 1.59
0.23 0.31 0.35 0.39 0.39 0.38 0.39 0.40 0.42 0.42 0.37 0.34 0.32 0.34 0.37 0.39 0.31 0.22 0.18 0.20 0.27 0.29 0.30 0.29 0.28 0.27 0.24 0.21 0.28 0.35 0.38 0.37 0.33 0.34 0.41 0.61 0.85 0.98 1.21 1.34 1.32 1.30 1.26
0.25 0.32 0.37 0.42 0.46 0.46 0.48 0.48 0.47 0.50 0.44 0.38 0.35 0.38 0.42 0.48 0.43 0.29 0.23 0.26 0.34 0.37 0.42 0.38 0.29 0.24 0.23 0.20 0.25 0.32 0.34 0.36 0.39 0.38 0.38 0.45 0.59 0.78 0.92 1.07 1.16 1.17 1.07
0.24 0.31 0.41 0.46 0.52 0.55 0.60 0.61 0.61 0.60 0.58 0.54 0.47 0.45 0.49 0.54 0.54 0.37 0.27 0.32 0.43 0.50 0.54 0.46 0.40 0.28 0.23 0.24 0.25 0.31 0.31 0.34 0.43 0.48 0.49 0.53 0.60 0.71 0.80 0.88 1.03 1.13 1.10
0.30 0.38 0.44 0.49 0.46 0.49 0.64 0.70 0.73 0.76 0.71 0.67 0.63 0.55 0.57 0.60 0.56 0.45 0.32 0.30 0.42 0.60 0.70 0.64 0.56 0.41 0.32 0.29 0.27 0.27 0.26 0.25 0.35 0.46 0.51 0.54 0.57 0.60 0.68 0.81 0.94 1.00 1.07
0.38 0.44 0.49 0.50 0.53 0.62 0.71 0.76 0.80 0.84 0.82 0.75 0.74 0.70 0.67 0.69 0.65 0.45 0.36 0.32 0.37 0.55 0.74 0.76 0.63 0.49 0.42 0.37 0.32 0.30 0.29 0.29 0.36 0.43 0.46 0.49 0.51 0.56 0.68 0.82 0.98 1.03 1.02
0.48 0.49 0.52 0.57 0.58 0.62 0.72 0.78 0.82 0.86 0.91 0.88 0.84 0.81 0.81 0.80 0.76 0.64 0.51 0.43 0.44 0.54 0.68 0.74 0.66 0.60 0.53 0.51 0.44 0.36 0.34 0.38 0.41 0.45 0.47 0.52 0.59 0.66 0.72 0.78 0.87 0.96 0.99
0.57 0.56 0.55 0.57 0.63 0.69 0.75 0.79 0.77 0.83 0.82 0.83 0.84 0.86 0.89 0.88 0.73 0.63 0.62 0.57 0.62 0.70 0.77 0.91 0.85 0.80 0.73 0.66 0.59 0.55 0.52 0.51 0.47 0.50 0.58 0.63 0.67 0.74 0.78 0.78 0.86 0.86 0.82
0.69 0.68 0.64 0.60 0.65 0.71 0.75 0.72 0.63 0.59 0.55 0.55 0.57 0.61 0.65 0.60 0.53 0.46 0.47 0.49 0.55 0.65 0.73 0.91 0.94 0.91 0.88 0.82 0.73 0.67 0.65 0.61 0.56 0.59 0.63 0.67 0.70 0.73 0.79 0.77 0.79 0.80 0.75
0.76 0.75 0.71 0.66 0.68 0.70 0.74 0.77 0.80 0.73 0.62 0.56 0.50 0.48 0.50 0.47 0.44 0.41 0.43 0.47 0.48 0.54 0.65 0.85 0.93 0.91 0.92 0.89 0.80 0.71 0.68 0.68 0.71 0.70 0.70 0.69 0.72 0.75 0.81 0.81 0.76 0.78 0.75
0.74 0.74 0.74 0.72 0.71 0.73 0.75 0.76 0.83 0.93 0.92 0.78 0.59 0.49 0.46 0.43 0.39 0.38 0.40 0.43 0.44 0.49 0.64 0.80 0.88 0.86 0.85 0.83 0.78 0.71 0.69 0.74 0.80 0.76 0.75 0.74 0.72 0.73 0.78 0.81 0.77 0.72 0.72
0.73 0.72 0.70 0.71 0.71 0.73 0.72 0.73 0.79 0.89 0.96 0.91 0.77 0.63 0.51 0.47 0.42 0.39 0.40 0.40 0.45 0.54 0.70 0.78 0.82 0.82 0.76 0.75 0.75 0.71 0.70 0.72 0.79 0.81 0.77 0.77 0.76 0.75 0.75 0.74 0.76 0.75 0.68
0.74 0.70 0.69 0.70 0.68 0.66 0.67 0.71 0.77 0.85 0.91 0.89 0.82 0.72 0.59 0.56 0.50 0.45 0.41 0.41 0.50 0.61 0.71 0.77 0.81 0.78 0.72 0.73 0.74 0.72 0.70 0.75 0.83 0.83 0.80 0.80 0.81 0.78 0.72 0.72 0.72 0.72 0.65
0.75 0.67 0.62 0.63 0.63 0.63 0.67 0.71 0.74 0.77 0.82 0.79 0.71 0.59 0.51 0.49 0.44 0.41 0.42 0.46 0.55 0.65 0.71 0.75 0.75 0.71 0.68 0.69 0.71 0.73 0.71 0.77 0.82 0.82 0.82 0.83 0.84 0.81 0.76 0.73 0.70 0.69 0.69
0.76 0.65 0.57 0.54 0.57 0.58 0.59 0.66 0.72 0.73 0.71 0.68 0.63 0.50 0.49 0.47 0.41 0.39 0.41 0.46 0.52 0.63 0.64 0.62 0.64 0.64 0.62 0.63 0.66 0.70 0.74 0.78 0.83 0.83 0.80 0.81 0.82 0.79 0.79 0.76 0.76 0.73 0.73
0.78 0.64 0.54 0.49 0.51 0.51 0.54 0.63 0.70 0.69 0.62 0.58 0.55 0.51 0.51 0.52 0.43 0.40 0.44 0.51 0.58 0.60 0.57 0.56 0.59 0.63 0.61 0.59 0.57 0.63 0.69 0.75 0.77 0.75 0.78 0.80 0.79 0.76 0.77 0.72 0.72 0.72 0.71
0.78 0.68 0.58 0.49 0.49 0.53 0.54 0.59 0.61 0.60 0.53 0.49 0.47 0.46 0.47 0.51 0.47 0.45 0.49 0.60 0.59 0.52 0.50 0.52 0.54 0.56 0.58 0.60 0.58 0.56 0.58 0.64 0.64 0.66 0.68 0.73 0.75 0.77 0.77 0.74 0.72 0.70 0.70
0.77 0.68 0.57 0.47 0.44 0.48 0.51 0.55 0.58 0.57 0.52 0.45 0.43 0.43 0.45 0.48 0.47 0.47 0.51 0.54 0.51 0.46 0.43 0.47 0.51 0.52 0.53 0.54 0.52 0.51 0.50 0.49 0.52 0.58 0.61 0.65 0.69 0.74 0.75 0.73 0.72 0.71 0.69
0.70 0.62 0.56 0.48 0.41 0.41 0.47 0.53 0.54 0.53 0.50 0.46 0.44 0.45 0.45 0.46 0.44 0.41 0.40 0.41 0.41 0.41 0.41 0.46 0.51 0.52 0.53 0.51 0.44 0.42 0.39 0.35 0.38 0.47 0.52 0.60 0.68 0.72 0.73 0.75 0.73 0.74 0.73